Location: Moscow
(30.9132°N, 94.8252°W)
Time: 05:40:57
(UTC+00:00)

NOAA 12 - Pass Details

Date: 15 November 2025
Orbit: 794 x 812 km, 98.6° (Epoch: 04 December)

Event Time Altitude Azimuth Distance (km) Brightness Sun altitude
Rises 11:05:28 0° 16° (NNE) 3,336 7.4 -21.7°
Reaches altitude 10° 11:07:50 10° 19° (NNE) 2,401 6.7 -21.2°
Maximum altitude 11:13:07 67° 101° (ESE) 878 4.5 -20.0°
Drops below altitude 10° 11:18:21 10° 184° (S) 2,380 6.6 -18.9°
Sets 11:20:42 0° 187° (S) 3,305 7.3 -18.5°
